Voltar ao catálogo

SL-14 DEB

AtivoPO
NORAD 25246·DEBRIS·🇷🇺 Russia

Lançado Aug 18, 1987 de Plesetsk Cosmodrome

Loading…

Próximas Passagens (próximas 24 horas)

TLE

AtualizadoSource: Space-Track

Época: Sep 14, 2026, 09:33 UTC

1 25246U 87068BP  26257.39825624  .00000742  00000-0  33576-3 0  9999
2 25246  82.2473 233.4469 0079545 121.6009  31.2392 14.19234048469440

Acompanhe SL-14 DEB em tempo real com AllMySat

Download on the App Store